Вернуться в каталог

USA 563

АктивенВоенныеVLEO
NORAD 65709·PAYLOAD·🇺🇸 United States

Запущен Sep 22, 2025 с Vandenberg Space Force Base

Loading…

Ближайшие Пролёты (ближайшие 24 часа)

TLE

УстаревшееSource: Mike McCants

Эпоха: Aug 9, 2026, 21:32 UTC

1 65709U 25213F   26221.89765027 0.00000000  00000-0  00000-0 0    00
2 65709  70.0222 252.1310 0003000 170.5749 189.4251 14.96713700    00

Отслеживайте USA 563 в реальном времени с AllMySat

Download on the App Store